Tracking 30995 objects as of 6-Jul-2025
HD Live streaming from Space Station
objects crossing your sky now

STARLINK-4353

Track STARLINK-4353 now!
10-day predictions
STARLINK-4353 is classified as:


NORAD ID: 53214
Int'l Code: 2022-084AB
Perigee: 567.4 km
Apogee: 572.9 km
Inclination: 97.7 °
Period: 95.9 minutes
Semi major axis: 6941 km
RCS: Unknown
Launch date: July 22, 2022
Source: United States (US)
Launch site: AIR FORCE WESTERN TEST RANGE (AFWTR)
Your satellite tracking list
CHUANG XIN 1-04
Track 1 satellite(s)




NASA's NSSDC Master Catalog

Two Line Element Set (TLE):
1 53214U 22084AB  25187.60237506  .00000032  00000-0  71062-5 0  9999
2 53214  97.6550 248.9326 0003981 147.2681 212.8791 15.01261083162391
Source of the keplerian elements: AFSPC